Time,TemperatureF,DewpointF,PressureIn,WindDirection,WindDirectionDegrees,WindSpeedMPH,WindSpeedGustMPH,Humidity,HourlyPrecipIn,Conditions,Clouds,dailyrainin,SoftwareType,DateUTC
2013-04-25 00:01:00,36.0,9.0,-100.00,ENE,58,9.0,17.0,32,-99.99,,,-99.99,,2013-04-25 07:01:00,
2013-04-25 00:11:00,35.0,9.0,-100.00,ENE,62,10.0,15.0,33,-99.99,,,-99.99,,2013-04-25 07:11:00,
2013-04-25 00:21:00,35.0,9.0,-100.00,ENE,68,10.0,16.0,34,-99.99,,,-99.99,,2013-04-25 07:21:00,
2013-04-25 00:31:00,34.0,10.0,-100.00,ENE,58,8.0,15.0,36,-99.99,,,-99.99,,2013-04-25 07:31:00,
2013-04-25 00:42:00,34.0,10.0,-100.00,ENE,58,8.0,15.0,36,-99.99,,,-99.99,,2013-04-25 07:42:00,
2013-04-25 00:52:00,32.0,10.0,-100.00,NE,34,6.0,10.0,38,-99.99,,,-99.99,,2013-04-25 07:52:00,
2013-04-25 01:01:00,32.0,10.0,-100.00,NNE,32,7.0,10.0,39,-99.99,,,-99.99,,2013-04-25 08:01:00,
2013-04-25 01:11:00,32.0,10.0,-100.00,NE,34,7.0,11.0,38,-99.99,,,-99.99,,2013-04-25 08:11:00,
2013-04-25 01:21:00,32.0,10.0,-100.00,NE,37,6.0,9.0,39,-99.99,,,-99.99,,2013-04-25 08:21:00,
2013-04-25 01:31:00,30.0,10.0,-100.00,NNE,30,6.0,8.0,42,-99.99,,,-99.99,,2013-04-25 08:31:00,
2013-04-25 01:41:00,30.0,9.0,-100.00,NE,37,5.0,6.0,41,-99.99,,,-99.99,,2013-04-25 08:41:00,
2013-04-25 01:51:00,28.0,9.0,-100.00,NNE,31,5.0,7.0,45,-99.99,,,-99.99,,2013-04-25 08:51:00,
2013-04-25 02:01:00,28.0,9.0,-100.00,NE,35,5.0,7.0,44,-99.99,,,-99.99,,2013-04-25 09:01:00,
2013-04-25 02:11:00,28.0,10.0,-100.00,NNE,17,4.0,6.0,46,-99.99,,,-99.99,,2013-04-25 09:11:00,
2013-04-25 02:21:00,28.0,10.0,-100.00,NNE,17,4.0,6.0,46,-99.99,,,-99.99,,2013-04-25 09:21:00,
2013-04-25 02:32:00,26.0,9.0,-100.00,North,359,4.0,5.0,49,-99.99,,,-99.99,,2013-04-25 09:32:00,
2013-04-25 02:42:00,25.0,10.0,-100.00,NNW,343,3.0,5.0,51,-99.99,,,-99.99,,2013-04-25 09:42:00,
2013-04-25 02:52:00,25.0,9.0,-100.00,North,354,3.0,4.0,50,-99.99,,,-99.99,,2013-04-25 09:52:00,
2013-04-25 03:02:00,25.0,10.0,-100.00,North,356,3.0,5.0,51,-99.99,,,-99.99,,2013-04-25 10:02:00,
2013-04-25 03:12:00,25.0,9.0,-100.00,North,6,3.0,5.0,51,-99.99,,,-99.99,,2013-04-25 10:12:00,
2013-04-25 03:22:00,26.0,9.0,-100.00,North,0,3.0,4.0,49,-99.99,,,-99.99,,2013-04-25 10:22:00,
2013-04-25 03:32:00,26.0,10.0,-100.00,North,359,3.0,5.0,49,-99.99,,,-99.99,,2013-04-25 10:32:00,
2013-04-25 03:42:00,26.0,10.0,-100.00,North,0,3.0,5.0,51,-99.99,,,-99.99,,2013-04-25 10:42:00,
2013-04-25 03:53:00,24.0,10.0,-100.00,NNE,20,2.0,4.0,53,-99.99,,,-99.99,,2013-04-25 10:53:00,
2013-04-25 04:02:00,24.0,9.0,-100.00,North,359,2.0,4.0,53,-99.99,,,-99.99,,2013-04-25 11:02:00,
2013-04-25 04:12:00,23.0,10.0,-100.00,North,360,3.0,5.0,57,-99.99,,,-99.99,,2013-04-25 11:12:00,
2013-04-25 04:22:00,24.0,9.0,-100.00,North,352,4.0,6.0,52,-99.99,,,-99.99,,2013-04-25 11:22:00,
2013-04-25 04:32:00,25.0,10.0,-100.00,North,354,3.0,5.0,52,-99.99,,,-99.99,,2013-04-25 11:32:00,
2013-04-25 04:42:00,27.0,10.0,-100.00,North,352,4.0,6.0,48,-99.99,,,-99.99,,2013-04-25 11:42:00,
2013-04-25 04:51:00,27.0,9.0,-100.00,NNW,340,4.0,6.0,46,-99.99,,,-99.99,,2013-04-25 11:51:00,
2013-04-25 05:01:00,26.0,10.0,-100.00,NNW,343,4.0,7.0,49,-99.99,,,-99.99,,2013-04-25 12:01:00,
2013-04-25 05:12:00,29.0,10.0,-100.00,NNW,346,4.0,6.0,44,-99.99,,,-99.99,,2013-04-25 12:12:00,
2013-04-25 05:21:00,29.0,10.0,-100.00,NNW,347,4.0,6.0,45,-99.99,,,-99.99,,2013-04-25 12:21:00,
2013-04-25 05:31:00,29.0,10.0,-100.00,NNW,347,4.0,6.0,45,-99.99,,,-99.99,,2013-04-25 12:31:00,
2013-04-25 05:41:00,29.0,10.0,-100.00,NNW,344,5.0,9.0,44,-99.99,,,-99.99,,2013-04-25 12:41:00,
2013-04-25 05:51:00,28.0,10.0,-100.00,North,353,6.0,9.0,46,-99.99,,,-99.99,,2013-04-25 12:51:00,
2013-04-25 06:02:00,29.0,9.0,-100.00,North,354,6.0,9.0,43,-99.99,,,-99.99,,2013-04-25 13:02:00,
2013-04-25 06:11:00,28.0,10.0,-100.00,North,349,6.0,10.0,46,-99.99,,,-99.99,,2013-04-25 13:11:00,
2013-04-25 06:21:00,29.0,10.0,-100.00,North,353,6.0,10.0,44,-99.99,,,-99.99,,2013-04-25 13:21:00,
2013-04-25 06:31:00,29.0,10.0,-100.00,North,353,6.0,10.0,44,-99.99,,,-99.99,,2013-04-25 13:31:00,
2013-04-25 06:42:00,28.0,9.0,-100.00,North,353,6.0,9.0,44,-99.99,,,-99.99,,2013-04-25 13:42:00,
2013-04-25 06:52:00,28.0,10.0,-100.00,North,359,6.0,10.0,46,-99.99,,,-99.99,,2013-04-25 13:52:00,
2013-04-25 07:01:00,30.0,10.0,-100.00,North,354,6.0,9.0,42,-99.99,,,-99.99,,2013-04-25 14:01:00,
2013-04-25 07:11:00,31.0,10.0,-100.00,North,6,4.0,8.0,42,-99.99,,,-99.99,,2013-04-25 14:11:00,
2013-04-25 07:21:00,32.0,10.0,-100.00,North,3,5.0,8.0,39,-99.99,,,-99.99,,2013-04-25 14:21:00,
2013-04-25 07:32:00,33.0,10.0,-100.00,North,353,5.0,8.0,37,-99.99,,,-99.99,,2013-04-25 14:32:00,
2013-04-25 07:42:00,34.0,11.0,-100.00,North,0,4.0,8.0,37,-99.99,,,-99.99,,2013-04-25 14:42:00,
2013-04-25 07:51:00,35.0,11.0,-100.00,North,1,6.0,9.0,35,-99.99,,,-99.99,,2013-04-25 14:51:00,
2013-04-25 08:02:00,37.0,11.0,-100.00,North,1,5.0,9.0,33,-99.99,,,-99.99,,2013-04-25 15:02:00,
2013-04-25 08:11:00,38.0,10.0,-100.00,North,11,6.0,10.0,30,-99.99,,,-99.99,,2013-04-25 15:11:00,
2013-04-25 08:21:00,39.0,10.0,-100.00,NNE,23,6.0,9.0,29,-99.99,,,-99.99,,2013-04-25 15:21:00,
2013-04-25 08:33:00,39.0,10.0,-100.00,NNE,23,6.0,9.0,29,-99.99,,,-99.99,,2013-04-25 15:33:00,
2013-04-25 08:42:00,39.0,10.0,-100.00,NNE,23,6.0,9.0,29,-99.99,,,-99.99,,2013-04-25 15:42:00,
2013-04-25 08:53:00,43.0,11.0,-100.00,NE,51,6.0,9.0,27,-99.99,,,-99.99,,2013-04-25 15:53:00,
2013-04-25 09:02:00,44.0,12.0,-100.00,NE,45,5.0,8.0,27,-99.99,,,-99.99,,2013-04-25 16:02:00,
2013-04-25 09:13:00,45.0,12.0,-100.00,NNE,23,5.0,9.0,26,-99.99,,,-99.99,,2013-04-25 16:13:00,
2013-04-25 09:24:00,46.0,10.0,-100.00,ENE,69,4.0,8.0,23,-99.99,,,-99.99,,2013-04-25 16:24:00,
2013-04-25 09:32:00,48.0,12.0,-100.00,ENE,68,4.0,6.0,23,-99.99,,,-99.99,,2013-04-25 16:32:00,
2013-04-25 09:42:00,49.0,10.0,-100.00,East,90,2.0,7.0,21,-99.99,,,-99.99,,2013-04-25 16:42:00,
2013-04-25 09:52:00,49.0,10.0,-100.00,East,90,2.0,7.0,21,-99.99,,,-99.99,,2013-04-25 16:52:00,
2013-04-25 10:02:00,49.0,10.0,-100.00,North,10,4.0,10.0,20,-99.99,,,-99.99,,2013-04-25 17:02:00,
2013-04-25 10:11:00,50.0,11.0,-100.00,NW,320,4.0,9.0,21,-99.99,,,-99.99,,2013-04-25 17:11:00,
2013-04-25 10:22:00,50.0,9.0,-100.00,NW,326,5.0,9.0,19,-99.99,,,-99.99,,2013-04-25 17:22:00,
2013-04-25 10:32:00,50.0,9.0,-100.00,NW,326,5.0,9.0,19,-99.99,,,-99.99,,2013-04-25 17:32:00,
2013-04-25 10:42:00,50.0,11.0,-100.00,North,356,7.0,14.0,20,-99.99,,,-99.99,,2013-04-25 17:42:00,
2013-04-25 10:53:00,51.0,10.0,-100.00,North,349,8.0,14.0,19,-99.99,,,-99.99,,2013-04-25 17:53:00,
2013-04-25 11:01:00,50.0,9.0,-100.00,North,360,5.0,11.0,18,-99.99,,,-99.99,,2013-04-25 18:01:00,
2013-04-25 11:11:00,51.0,9.0,-100.00,North,349,6.0,13.0,18,-99.99,,,-99.99,,2013-04-25 18:11:00,
2013-04-25 11:21:00,51.0,9.0,-100.00,North,349,6.0,13.0,18,-99.99,,,-99.99,,2013-04-25 18:21:00,
2013-04-25 11:32:00,52.0,3.0,-100.00,West,267,6.0,13.0,13,-99.99,,,-99.99,,2013-04-25 18:32:00,
2013-04-25 11:43:00,53.0,5.0,-100.00,SW,220,8.0,23.0,14,-99.99,,,-99.99,,2013-04-25 18:43:00,
2013-04-25 11:53:00,53.0,5.0,-100.00,SW,220,8.0,23.0,14,-99.99,,,-99.99,,2013-04-25 18:53:00,
2013-04-25 12:01:00,53.0,5.0,-100.00,West,275,8.0,17.0,14,-99.99,,,-99.99,,2013-04-25 19:01:00,
2013-04-25 12:12:00,54.0,6.0,-100.00,SW,226,9.0,15.0,14,-99.99,,,-99.99,,2013-04-25 19:12:00,
2013-04-25 12:21:00,53.0,4.0,-100.00,WSW,243,11.0,21.0,13,-99.99,,,-99.99,,2013-04-25 19:21:00,
2013-04-25 12:31:00,55.0,7.0,-100.00,SSW,198,7.0,15.0,14,-99.99,,,-99.99,,2013-04-25 19:31:00,
2013-04-25 12:41:00,56.0,7.0,-100.00,WSW,258,7.0,21.0,14,-99.99,,,-99.99,,2013-04-25 19:41:00,
2013-04-25 12:52:00,54.0,6.0,-100.00,WNW,289,11.0,23.0,14,-99.99,,,-99.99,,2013-04-25 19:52:00,
2013-04-25 13:01:00,54.0,6.0,-100.00,WSW,254,8.0,17.0,14,-99.99,,,-99.99,,2013-04-25 20:01:00,
2013-04-25 13:11:00,55.0,3.0,-100.00,WSW,251,8.0,16.0,12,-99.99,,,-99.99,,2013-04-25 20:11:00,
2013-04-25 13:22:00,55.0,3.0,-100.00,WNW,289,6.0,17.0,12,-99.99,,,-99.99,,2013-04-25 20:22:00,
2013-04-25 13:32:00,55.0,5.0,-100.00,West,277,10.0,21.0,13,-99.99,,,-99.99,,2013-04-25 20:32:00,
2013-04-25 13:42:00,56.0,6.0,-100.00,WSW,250,8.0,26.0,13,-99.99,,,-99.99,,2013-04-25 20:42:00,
2013-04-25 13:51:00,56.0,4.0,-100.00,WSW,247,8.0,24.0,12,-99.99,,,-99.99,,2013-04-25 20:51:00,
2013-04-25 14:01:00,56.0,2.0,-100.00,NNW,339,7.0,15.0,11,-99.99,,,-99.99,,2013-04-25 21:01:00,
2013-04-25 14:11:00,55.0,1.0,-100.00,WNW,299,8.0,21.0,11,-99.99,,,-99.99,,2013-04-25 21:11:00,
2013-04-25 14:21:00,56.0,2.0,-100.00,West,260,7.0,16.0,11,-99.99,,,-99.99,,2013-04-25 21:21:00,
2013-04-25 14:33:00,56.0,0.0,-100.00,West,270,9.0,17.0,10,-99.99,,,-99.99,,2013-04-25 21:33:00,
2013-04-25 14:42:00,56.0,2.0,-100.00,NW,320,7.0,15.0,11,-99.99,,,-99.99,,2013-04-25 21:42:00,
2013-04-25 14:53:00,56.0,3.0,-100.00,NW,304,9.0,21.0,11,-99.99,,,-99.99,,2013-04-25 21:53:00,
2013-04-25 15:02:00,56.0,2.0,-100.00,NW,305,11.0,24.0,11,-99.99,,,-99.99,,2013-04-25 22:02:00,
2013-04-25 15:12:00,57.0,1.0,-100.00,WNW,285,7.0,16.0,10,-99.99,,,-99.99,,2013-04-25 22:12:00,
2013-04-25 15:22:00,57.0,3.0,-100.00,WSW,253,9.0,19.0,11,-99.99,,,-99.99,,2013-04-25 22:22:00,
2013-04-25 15:32:00,57.0,3.0,-100.00,WSW,253,9.0,19.0,11,-99.99,,,-99.99,,2013-04-25 22:32:00,
2013-04-25 15:42:00,57.0,1.0,-100.00,SW,223,9.0,19.0,10,-99.99,,,-99.99,,2013-04-25 22:42:00,
2013-04-25 15:52:00,58.0,4.0,-100.00,WSW,258,10.0,19.0,11,-99.99,,,-99.99,,2013-04-25 22:52:00,
2013-04-25 16:02:00,57.0,-1.0,-100.00,WSW,257,7.0,14.0,9,-99.99,,,-99.99,,2013-04-25 23:02:00,
2013-04-25 16:12:00,56.0,1.0,-100.00,West,263,10.0,23.0,10,-99.99,,,-99.99,,2013-04-25 23:12:00,
2013-04-25 16:21:00,57.0,1.0,-100.00,WSW,240,6.0,15.0,10,-99.99,,,-99.99,,2013-04-25 23:21:00,
2013-04-25 16:32:00,57.0,3.0,-100.00,WSW,241,5.0,11.0,11,-99.99,,,-99.99,,2013-04-25 23:32:00,
2013-04-25 16:41:00,58.0,2.0,-100.00,NNW,332,9.0,16.0,10,-99.99,,,-99.99,,2013-04-25 23:41:00,
2013-04-25 16:52:00,58.0,2.0,-100.00,NNW,332,9.0,16.0,10,-99.99,,,-99.99,,2013-04-25 23:52:00,
2013-04-25 17:01:00,58.0,2.0,-100.00,WNW,298,10.0,20.0,10,-99.99,,,-99.99,,2013-04-26 00:01:00,
2013-04-25 17:11:00,57.0,1.0,-100.00,WNW,282,7.0,15.0,10,-99.99,,,-99.99,,2013-04-26 00:11:00,
2013-04-25 17:21:00,57.0,1.0,-100.00,WNW,299,10.0,21.0,10,-99.99,,,-99.99,,2013-04-26 00:21:00,
2013-04-25 17:31:00,57.0,1.0,-100.00,WNW,299,10.0,21.0,10,-99.99,,,-99.99,,2013-04-26 00:31:00,
2013-04-25 17:41:00,57.0,1.0,-100.00,WNW,295,9.0,19.0,10,-99.99,,,-99.99,,2013-04-26 00:41:00,
2013-04-25 17:51:00,56.0,0.0,-100.00,NNW,342,11.0,22.0,10,-99.99,,,-99.99,,2013-04-26 00:51:00,
2013-04-25 18:01:00,56.0,-2.0,-100.00,NW,323,12.0,19.0,9,-99.99,,,-99.99,,2013-04-26 01:01:00,
2013-04-25 18:11:00,57.0,-1.0,-100.00,NW,311,9.0,17.0,9,-99.99,,,-99.99,,2013-04-26 01:11:00,
2013-04-25 18:21:00,56.0,-2.0,-100.00,NW,309,10.0,17.0,9,-99.99,,,-99.99,,2013-04-26 01:21:00,
2013-04-25 18:31:00,56.0,0.0,-100.00,WNW,295,8.0,14.0,10,-99.99,,,-99.99,,2013-04-26 01:31:00,
2013-04-25 18:41:00,56.0,0.0,-100.00,NW,308,9.0,15.0,10,-99.99,,,-99.99,,2013-04-26 01:41:00,
2013-04-25 18:52:00,55.0,-1.0,-100.00,NW,315,9.0,15.0,10,-99.99,,,-99.99,,2013-04-26 01:52:00,
2013-04-25 19:01:00,55.0,-1.0,-100.00,WNW,299,6.0,11.0,10,-99.99,,,-99.99,,2013-04-26 02:01:00,
2013-04-25 19:11:00,53.0,-2.0,-100.00,NW,308,6.0,12.0,10,-99.99,,,-99.99,,2013-04-26 02:11:00,
2013-04-25 19:21:00,52.0,-1.0,-100.00,WNW,298,5.0,9.0,11,-99.99,,,-99.99,,2013-04-26 02:21:00,
2013-04-25 19:31:00,51.0,1.0,-100.00,WNW,292,7.0,13.0,12,-99.99,,,-99.99,,2013-04-26 02:31:00,
2013-04-25 19:41:00,47.0,5.0,-100.00,NNW,329,3.0,6.0,17,-99.99,,,-99.99,,2013-04-26 02:41:00,
2013-04-25 19:42:00,51.0,2.0,-100.00,NW,305,7.0,13.0,13,-99.99,,,-99.99,,2013-04-26 02:42:00,
2013-04-25 19:51:00,51.0,2.0,-100.00,NW,305,7.0,13.0,13,-99.99,,,-99.99,,2013-04-26 02:51:00,
2013-04-25 20:01:00,49.0,3.0,-100.00,NW,311,4.0,8.0,15,-99.99,,,-99.99,,2013-04-26 03:01:00,
2013-04-25 20:11:00,47.0,5.0,-100.00,NNW,329,3.0,6.0,17,-99.99,,,-99.99,,2013-04-26 03:11:00,
2013-04-25 20:21:00,47.0,5.0,-100.00,NNW,329,3.0,6.0,17,-99.99,,,-99.99,,2013-04-26 03:21:00,
2013-04-25 20:32:00,47.0,5.0,-100.00,NNW,329,3.0,6.0,17,-99.99,,,-99.99,,2013-04-26 03:32:00,
2013-04-25 21:02:00,37.0,5.0,-100.00,NNE,32,1.0,3.0,26,-99.99,,,-99.99,,2013-04-26 04:02:00,
2013-04-25 21:12:00,35.0,5.0,-100.00,North,3,0.0,1.0,28,-99.99,,,-99.99,,2013-04-26 04:12:00,
2013-04-25 21:22:00,35.0,5.0,-100.00,North,3,0.0,1.0,28,-99.99,,,-99.99,,2013-04-26 04:22:00,
2013-04-25 21:32:00,33.0,6.0,-100.00,NE,42,0.0,2.0,31,-99.99,,,-99.99,,2013-04-26 04:32:00,
2013-04-25 21:43:00,32.0,6.0,-100.00,ENE,61,0.0,2.0,32,-99.99,,,-99.99,,2013-04-26 04:43:00,
2013-04-25 21:53:00,31.0,6.0,-100.00,NNW,343,0.0,2.0,35,-99.99,,,-99.99,,2013-04-26 04:53:00,
2013-04-25 22:02:00,30.0,6.0,-100.00,North,356,0.0,2.0,36,-99.99,,,-99.99,,2013-04-26 05:02:00,
2013-04-25 22:12:00,29.0,7.0,-100.00,North,349,0.0,2.0,38,-99.99,,,-99.99,,2013-04-26 05:12:00,
2013-04-25 22:22:00,29.0,7.0,-100.00,North,353,0.0,1.0,39,-99.99,,,-99.99,,2013-04-26 05:22:00,
2013-04-25 22:32:00,28.0,6.0,-100.00,NNW,330,0.0,2.0,39,-99.99,,,-99.99,,2013-04-26 05:32:00,
2013-04-25 22:42:00,28.0,6.0,-100.00,NNW,346,0.0,1.0,39,-99.99,,,-99.99,,2013-04-26 05:42:00,
2013-04-25 22:52:00,27.0,7.0,-100.00,North,349,1.0,3.0,42,-99.99,,,-99.99,,2013-04-26 05:52:00,
2013-04-25 23:02:00,27.0,7.0,-100.00,NNW,340,2.0,4.0,42,-99.99,,,-99.99,,2013-04-26 06:02:00,
2013-04-25 23:11:00,26.0,6.0,-100.00,North,352,1.0,2.0,42,-99.99,,,-99.99,,2013-04-26 06:11:00,
2013-04-25 23:21:00,26.0,7.0,-100.00,NNW,344,1.0,2.0,43,-99.99,,,-99.99,,2013-04-26 06:21:00,
2013-04-25 23:32:00,25.0,6.0,-100.00,NNW,346,1.0,3.0,44,-99.99,,,-99.99,,2013-04-26 06:32:00,
2013-04-25 23:41:00,25.0,7.0,-100.00,North,352,1.0,3.0,46,-99.99,,,-99.99,,2013-04-26 06:41:00,
2013-04-25 23:51:00,25.0,7.0,-100.00,NNW,340,1.0,2.0,47,-99.99,,,-99.99,,2013-04-26 06:51:00,